Hourly Data Report for October 01, 2015

All times are specified in Local Standard Time (LST). Add 1 hour to adjust for Daylight Saving Time where and when it is observed.

POND INLET A
NUNAVUT

72°41'22.000" N
77°58'08.000" W
61.60 m
2403206
71095
YIO

Download Data

Hourly Data (October 2015)
Hourly Data Report for October 1, 2015
Temp Definition
°C
Dew Point Temp Definition
°C
Rel Hum Definition
%
Wind Dir Definition
10's deg

Wind Spd Definition
km/h
Visibility Definition
km
Stn Press Definition
kPa
Hmdx Definition


Wind Chill Definition


Weather Definition


TIME
00:00 Legend Double Dagger -4.4 -7.9 77 19 9 16.1 100.54   -8 LegendNANA
01:00 Legend Double Dagger -4.0 -7.5 77 25 9 16.1 100.52   -8 LegendNANA
02:00 Legend Double Dagger -3.5 -6.8 78 24 9 16.1 100.48   -7 Snow
03:00 Legend Double Dagger -3.8 -5.7 87 4 11 16.1 100.34   -8 Snow
04:00 Legend Double Dagger -4.2 -5.2 93 8 8 2.0 100.21   -8 Snow
05:00 Legend Double Dagger -4.1 -4.9 94 6 11 2.0 100.08   -9 Snow
06:00 Legend Double Dagger -3.9 -4.6 95 6 9 1.6 100.00   -8 Snow
07:00 Legend Double Dagger -3.6 -4.2 96 6 5 0.6 99.91   -6 Moderate Snow
08:00 Legend Double Dagger -3.1 -3.5 97   0 0.4 99.84     Heavy Snow
09:00 Legend Double Dagger -2.3 -2.7 97 6 5 0.8 99.74   -4 Moderate Snow
10:00 Legend Double Dagger -1.5 -2.2 95 14 4 1.6 99.60   -3 Snow
11:00 Legend Double Dagger -0.2 -3.0 81 20 17 11.3 99.50   -5 Snow
12:00 Legend Double Dagger 0.5 -3.1 77 22 13 16.1 99.39     LegendNANA
13:00 Legend Double Dagger -0.7 -2.1 90 2 5 16.1 99.36   -2 LegendNANA
14:00 Legend Double Dagger -0.8 -1.5 95 6 11 4.0 99.22   -5 Snow
15:00 Legend Double Dagger -0.8 -1.1 98 5 8 4.8 99.08   -4 Snow
16:00 Legend Double Dagger -0.5 -0.9 97 5 5 16.1 98.98   -2 Snow
17:00 Legend Double Dagger -0.2 -0.6 97 30 5 4.8 98.92   -2 Snow
18:00 Legend Double Dagger 0.0 -0.3 98 33 8 1.6 98.84   -3 Snow
19:00 Legend Double Dagger -0.1 -0.2 99 33 8 0.6 98.69   -3 Moderate Snow
20:00 Legend Double Dagger 0.3 0.2 99 30 11 2.0 98.67     Snow
21:00 Legend Double Dagger 1.8 0.5 91 20 35 16.1 98.59     Rain
22:00 Legend Double Dagger 1.7 -0.1 88 22 52 16.1 98.55     Rain
23:00 Legend Double Dagger 0.9 -2.0 81 22 52 16.1 98.59     LegendNANA

Notes on Data Quality.

Legend

  • E = Estimated
  • M = Missing
  • NA = Not Available
  • ‡ = Partner data that is not subject to review by the National Climate Archives
Date modified: